UTA205 UUWW-USTR

Flight info

Callsign UTA205
Flight time N/A
Altitude 35000
Route K0845F350 OLMUN T629 IPSIL T830 LAMGU N604 OGSIN P983 GINPA
Aircraft B738/M-SDE2E3FGHIRWXY/LB1

Departure

Time 2026-04-29 15:09
Airport Vnukovo International Airport (UUWW)

Arrival

Time N/A
Airport Roshchino International Airport (USTR)
Time Latitude Longitude Altitude Speed Heading
2026-04-29 14:38 55.60270 37.28476 679 ft 0 kts 284°
2026-04-29 14:54 55.60270 37.28477 678 ft 2 kts 284°
2026-04-29 14:54 55.60267 37.28497 678 ft 2 kts 284°
2026-04-29 14:55 55.60264 37.28518 678 ft 2 kts 284°
2026-04-29 14:55 55.60261 37.28538 678 ft 2 kts 284°
2026-04-29 14:55 55.60258 37.28558 678 ft 2 kts 284°
2026-04-29 14:55 55.60255 37.28578 678 ft 2 kts 284°
2026-04-29 14:56 55.60253 37.28598 678 ft 2 kts 284°
2026-04-29 14:56 55.60250 37.28618 678 ft 2 kts 284°
2026-04-29 14:56 55.60247 37.28638 678 ft 2 kts 258°
2026-04-29 14:56 55.60252 37.28656 676 ft 2 kts 216°
2026-04-29 14:57 55.60259 37.28664 678 ft 2 kts 210°
2026-04-29 14:57 55.60269 37.28673 678 ft 0 kts 200°
2026-04-29 15:01 55.60264 37.28670 678 ft 3 kts 200°
2026-04-29 15:02 55.60237 37.28673 675 ft 5 kts 153°
2026-04-29 15:02 55.60185 37.28754 677 ft 13 kts 136°
2026-04-29 15:02 55.60118 37.28860 678 ft 13 kts 153°
2026-04-29 15:02 55.60033 37.28903 679 ft 13 kts 166°
2026-04-29 15:03 55.59934 37.28946 677 ft 19 kts 166°
2026-04-29 15:03 55.59799 37.29012 689 ft 20 kts 159°
2026-04-29 15:03 55.59688 37.29077 676 ft 14 kts 188°
2026-04-29 15:03 55.59626 37.28952 677 ft 14 kts 233°
2026-04-29 15:04 55.59570 37.28802 676 ft 18 kts 239°
2026-04-29 15:04 55.59517 37.28588 679 ft 20 kts 247°
2026-04-29 15:04 55.59468 37.28366 679 ft 19 kts 249°
2026-04-29 15:04 55.59418 37.28189 679 ft 13 kts 217°
2026-04-29 15:05 55.59332 37.28219 678 ft 13 kts 160°
2026-04-29 15:05 55.59267 37.28137 677 ft 13 kts 245°
2026-04-29 15:05 55.59220 37.27934 675 ft 24 kts 247°
2026-04-29 15:05 55.59145 37.27603 667 ft 33 kts 248°
2026-04-29 15:06 55.59060 37.27223 664 ft 33 kts 248°
2026-04-29 15:06 55.58977 37.26855 658 ft 31 kts 248°
2026-04-29 15:06 55.58899 37.26506 656 ft 30 kts 249°
2026-04-29 15:06 55.58829 37.26194 651 ft 15 kts 249°
2026-04-29 15:07 55.58815 37.26131 651 ft 0 kts 247°
2026-04-29 15:07 55.58803 37.26082 651 ft 12 kts 247°
2026-04-29 15:07 55.58763 37.25939 651 ft 13 kts 250°
2026-04-29 15:07 55.58789 37.25872 654 ft 7 kts 345°
2026-04-29 15:08 55.58808 37.25880 651 ft 0 kts 21°
2026-04-29 15:08 55.58823 37.25890 653 ft 19 kts 22°
2026-04-29 15:08 55.59169 37.26154 668 ft 87 kts 23°
2026-04-29 15:09 55.59913 37.26718 685 ft 142 kts 22°
2026-04-29 15:09 55.60930 37.27433 1002 ft 163 kts 17°
2026-04-29 15:09 55.62045 37.28113 1434 ft 171 kts 15°
2026-04-29 15:09 55.63107 37.28790 1995 ft 154 kts 18°
2026-04-29 15:10 55.64177 37.29488 2147 ft 175 kts 15°
2026-04-29 15:10 55.65386 37.30145 2337 ft 192 kts 18°
2026-04-29 15:10 55.66640 37.31211 2470 ft 210 kts 33°
2026-04-29 15:10 55.67482 37.33412 2587 ft 231 kts 77°
2026-04-29 15:11 55.67261 37.36266 2875 ft 245 kts 114°
2026-04-29 15:11 55.66470 37.38926 3411 ft 242 kts 115°
2026-04-29 15:11 55.65667 37.41560 3949 ft 248 kts 128°
2026-04-29 15:11 55.64261 37.43369 4527 ft 256 kts 155°
2026-04-29 15:12 55.62617 37.44713 5099 ft 262 kts 155°
2026-04-29 15:12 55.60973 37.46107 5640 ft 262 kts 154°
2026-04-29 15:12 55.59330 37.47517 6189 ft 262 kts 153°
2026-04-29 15:12 55.57884 37.49438 6694 ft 263 kts 124°
2026-04-29 15:13 55.57183 37.52361 7281 ft 259 kts 98°
2026-04-29 15:13 55.56959 37.55549 7854 ft 265 kts 93°
2026-04-29 15:13 55.56780 37.58833 8412 ft 270 kts 92°
2026-04-29 15:13 55.56938 37.62081 8916 ft 264 kts 66°
2026-04-29 15:14 55.57746 37.64946 9498 ft 260 kts 57°
2026-04-29 15:14 55.58676 37.67725 10067 ft 265 kts 56°
2026-04-29 15:14 55.59646 37.70589 10485 ft 278 kts 56°
2026-04-29 15:14 55.60656 37.73595 10874 ft 291 kts 57°
2026-04-29 15:15 55.61710 37.76767 11220 ft 306 kts 57°
2026-04-29 15:15 55.62791 37.80046 11559 ft 316 kts 58°
2026-04-29 15:15 55.63913 37.83470 11883 ft 319 kts 59°
2026-04-29 15:15 55.64669 37.87115 12165 ft 324 kts 82°
2026-04-29 15:16 55.63038 38.02368 13457 ft 330 kts 102°
2026-04-29 15:17 55.62519 38.06332 13783 ft 332 kts 102°
2026-04-29 15:17 55.62001 38.10343 14109 ft 335 kts 102°
2026-04-29 15:17 55.61484 38.14363 14433 ft 336 kts 102°
2026-04-29 15:17 55.60966 38.18419 14760 ft 338 kts 102°
2026-04-29 15:18 55.60449 38.22489 15086 ft 340 kts 102°
2026-04-29 15:18 55.59930 38.26571 15413 ft 341 kts 101°
2026-04-29 15:18 55.59407 38.30674 15735 ft 342 kts 101°
2026-04-29 15:18 55.58880 38.34788 16061 ft 344 kts 101°
2026-04-29 15:19 55.58349 38.38917 16387 ft 345 kts 101°
2026-04-29 15:19 55.57906 38.43085 16694 ft 345 kts 90°
2026-04-29 15:19 55.58250 38.47240 17019 ft 342 kts 68°
2026-04-29 15:19 55.59324 38.50964 17369 ft 340 kts 57°
2026-04-29 15:20 55.60559 38.54555 17695 ft 343 kts 56°
2026-04-29 15:20 55.61793 38.58176 18010 ft 345 kts 57°
2026-04-29 15:20 55.63021 38.61839 18342 ft 347 kts 57°
2026-04-29 15:20 55.64247 38.65531 18670 ft 349 kts 57°
2026-04-29 15:21 55.65475 38.69245 18997 ft 351 kts 57°
2026-04-29 15:21 55.66708 38.72984 19316 ft 352 kts 57°
2026-04-29 15:21 55.67945 38.76741 19644 ft 353 kts 58°
2026-04-29 15:21 55.69185 38.80513 19976 ft 355 kts 58°
2026-04-29 15:22 55.70428 38.84296 20299 ft 356 kts 58°
2026-04-29 15:22 55.71675 38.88099 20620 ft 357 kts 58°
2026-04-29 15:22 55.72926 38.91918 20952 ft 358 kts 57°
2026-04-29 15:22 55.74361 38.95508 21259 ft 357 kts 45°
2026-04-29 15:23 55.76076 38.98682 21613 ft 356 kts 43°
2026-04-29 15:23 55.77819 39.01806 21933 ft 356 kts 43°
2026-04-29 15:23 55.79553 39.04959 22256 ft 357 kts 44°
2026-04-29 15:23 55.81246 39.08103 22572 ft 357 kts 44°
2026-04-29 15:24 55.82951 39.11316 22884 ft 357 kts 44°
2026-04-29 15:24 55.84649 39.14533 23218 ft 357 kts 45°
2026-04-29 15:24 55.86350 39.17772 23536 ft 359 kts 45°
2026-04-29 15:24 55.88060 39.21041 23875 ft 363 kts 45°
2026-04-29 15:25 55.89791 39.24355 24201 ft 367 kts 45°
2026-04-29 15:25 55.91539 39.27703 24536 ft 371 kts 45°
2026-04-29 15:25 55.93313 39.31067 24864 ft 373 kts 43°
2026-04-29 15:25 55.95192 39.34286 25190 ft 375 kts 40°
2026-04-29 15:26 55.97122 39.37435 25516 ft 377 kts 40°
2026-04-29 15:26 55.99069 39.40597 25841 ft 379 kts 40°
2026-04-29 15:26 56.01013 39.43783 26165 ft 380 kts 40°
2026-04-29 15:26 56.02955 39.46997 26482 ft 382 kts 40°
2026-04-29 15:27 56.04899 39.50238 26805 ft 382 kts 40°
2026-04-29 15:27 56.06847 39.53495 27130 ft 383 kts 40°
2026-04-29 15:27 56.08656 39.56998 27427 ft 387 kts 51°
2026-04-29 15:27 56.10156 39.61006 27773 ft 387 kts 54°
2026-04-29 15:28 56.11585 39.65109 28093 ft 387 kts 55°
2026-04-29 15:28 56.12519 39.67828 28306 ft 387 kts 55°
2026-04-29 15:28 56.14411 39.73311 28735 ft 385 kts 55°
2026-04-29 15:28 56.15832 39.77380 29062 ft 384 kts 54°
2026-04-29 15:29 56.17256 39.81423 29374 ft 383 kts 54°
2026-04-29 15:29 56.20100 39.89447 30015 ft 379 kts 54°
2026-04-29 15:30 56.22920 39.97394 30641 ft 375 kts 54°
2026-04-29 15:30 56.24319 40.01344 30957 ft 374 kts 54°
2026-04-29 15:30 56.25711 40.05282 31276 ft 372 kts 54°
2026-04-29 15:30 56.27096 40.09205 31592 ft 371 kts 54°
2026-04-29 15:31 56.28479 40.13129 31909 ft 370 kts 54°
2026-04-29 15:31 56.29854 40.17038 32227 ft 369 kts 54°
2026-04-29 15:31 56.31226 40.20941 32486 ft 370 kts 55°
2026-04-29 15:32 56.34036 40.28955 32529 ft 385 kts 56°
2026-04-29 15:32 56.36940 40.37267 32669 ft 399 kts 57°
2026-04-29 15:33 56.39924 40.45847 32803 ft 413 kts 57°
2026-04-29 15:33 56.43023 40.54780 32924 ft 426 kts 57°
2026-04-29 15:34 56.46078 40.64182 33025 ft 440 kts 65°
2026-04-29 15:34 56.47931 40.74890 33137 ft 452 kts 75°
2026-04-29 15:35 56.49533 40.86051 33226 ft 464 kts 75°
2026-04-29 15:35 56.51187 40.97465 33455 ft 471 kts 75°
2026-04-29 15:35 56.52029 41.03193 33716 ft 471 kts 75°
2026-04-29 15:36 56.52875 41.08922 34014 ft 470 kts 75°
2026-04-29 15:36 56.53719 41.14630 34258 ft 470 kts 75°
2026-04-29 15:36 56.54565 41.20370 34441 ft 471 kts 75°
2026-04-29 15:36 56.55408 41.26114 34627 ft 472 kts 75°
2026-04-29 15:37 56.56249 41.31867 34857 ft 472 kts 75°
2026-04-29 15:37 56.57088 41.37617 35072 ft 472 kts 75°
2026-04-29 15:37 56.57927 41.43394 35059 ft 476 kts 75°
2026-04-29 15:38 56.59588 41.54908 35068 ft 473 kts 75°
2026-04-29 15:38 56.61237 41.66432 35065 ft 470 kts 75°
2026-04-29 15:39 56.62867 41.77899 35064 ft 468 kts 75°
2026-04-29 15:39 56.64482 41.89362 35065 ft 466 kts 76°
2026-04-29 15:40 56.66084 42.00797 35066 ft 467 kts 76°
2026-04-29 15:40 56.67676 42.12245 35070 ft 468 kts 76°
2026-04-29 15:41 56.69268 42.23760 35072 ft 470 kts 76°
2026-04-29 15:41 56.70852 42.35316 35070 ft 472 kts 76°
2026-04-29 15:42 56.72433 42.46946 35061 ft 474 kts 76°
2026-04-29 15:42 56.74014 42.58563 35054 ft 476 kts 75°
2026-04-29 15:43 56.75867 42.70165 35057 ft 477 kts 73°
2026-04-29 15:43 56.77825 42.81758 35057 ft 478 kts 73°
2026-04-29 15:44 56.79746 42.93379 35053 ft 479 kts 73°
2026-04-29 15:44 56.81626 43.05030 35054 ft 478 kts 73°
2026-04-29 15:45 56.83483 43.16686 35056 ft 477 kts 73°
2026-04-29 15:45 56.85323 43.28332 35054 ft 476 kts 74°
2026-04-29 15:46 56.87160 43.40022 35070 ft 482 kts 74°
2026-04-29 15:46 56.89015 43.51906 35070 ft 489 kts 74°
2026-04-29 15:47 56.90877 43.63910 35064 ft 495 kts 74°
2026-04-29 15:47 56.92749 43.76085 35056 ft 498 kts 74°
2026-04-29 15:48 56.94619 43.88320 35053 ft 499 kts 74°
2026-04-29 15:48 56.96479 44.00582 35055 ft 499 kts 74°
2026-04-29 15:49 56.98314 44.12768 35055 ft 499 kts 75°
2026-04-29 15:49 57.00146 44.25040 35053 ft 499 kts 75°
2026-04-29 15:50 57.01969 44.37341 35044 ft 499 kts 75°
2026-04-29 15:50 57.03779 44.49649 35048 ft 500 kts 75°
2026-04-29 15:51 57.05580 44.61972 35043 ft 499 kts 75°